Tracking 35274 objects as of 11-Sep-2026
HD Live streaming from Space Station
objects crossing your sky now

SITRO-AIS-10

Track SITRO-AIS-10 now!
10-day predictions
SITRO-AIS-10 is classified as:


NORAD ID: 57199
Int'l Code: 2023-091AK
Launch date: June 27, 2023
Source: (TBD)
Launch site: VOSTOCHNY COSMODROME (VOSTO)

Uplink (MHz):
Downlink (MHz): 401.290
Beacon (MHz):
Mode: 2k4 GMSK_USP
Call sign: SC2212
Status: Active

Your satellite tracking list
Your tracking list is empty




NASA's NSSDC Master Catalog

Two Line Element Set (TLE):
1 57199U 23091AK  26253.94692746  .00017408  00000-0  41492-3 0  9994
2 57199  97.5011 326.6936 0007276 120.4105 239.7862 15.41619898177965
Source of the keplerian elements: AFSPC